星链-5918 (STARLINK-5918 )

导读 | 豆包AI

STARLINK-5918是美国SpaceX公司星链(Starlink)卫星互联网项目的一颗卫星,于2023年3月17日发射升空。作为星链星座组网的组成部分,它运行在近地轨道,旨在为全球偏远地区提供低延迟高速宽带互联网接入,助力星链完成全球覆盖,拓展卫星互联网在民用、应急通信等多领域的应用。

基本信息
目录编号:
55939
目录名称:
STARLINK-5918
国际标识:
2023-037AB
轨道中心:
EARTH
卫星名称:
星链-5918
卫星全名:
星链-5918 (STARLINK-5918 )
卫星状态:
在轨 (已飞行1140 天)
发射日期:
2023-03-17 UTC
国别 :
美国 (US)
星等 :
--
轨道信息
数据来源 国际轨道数据 AOE轨道数据
星历时间 2026-04-30T10:42:22+0800
8小时前
查看轨道信息
2026-04-30T07:00:00+0800
11小时前
查看轨道信息
半长轴 6950.193km 6950.195km
偏心率 0.0004298 0.0003349
轨道倾角 69.999° 69.999°
近地点辐角 267.747° 279.421°
升交点赤经 154.772° 155.161°
平近点角 92.320° 327.916°
近地点 569.068km 569.73km
远地点 575.044km 574.386km
周期 96.107分钟 96.107分钟
每日圈数 14.983301 14.983296
详细信息
固有亮度:
5
最大亮度:
2.5
卫星平台:
Starlink v1.5
覆盖范围:
全球
运营商:
太空探索技术公司
运营商所在国:
美国
制造商(研发单位):
太空探索技术公司
制造商所在国:
美国
使用方式:
暂无
卫星简介
星链(Starlink)计划是由太空探索技术公司(SpaceX)提出的一个巨型低轨卫星互联网星座项目,计划在2019年至2024年间在太空搭建由约1.2万颗卫星组成的“星链”网络,其中1584颗将部署在地球上空550千米处的近地轨道,并从2020年开始工作。该卫星仍在工作。
2D轨道图
3D轨道图
轨道高度分析图
轨道倾角分析图
轨道综合分析图
查看轨道综合分析图